Regional Weather Roundup
Issued by NWS

Home | Current Version | Previous Version | Text Only | Print | Product List | Glossary On
Versions: 1 2 3 4 5 6 7 8 9 10 11 12 13 14 15 16 17 18 19 20 21 22 23 24 25 26 27 28 29 30 31 32 33 34 35 36 37 38 39 40 41 42 43 44 45 46 47 48 49 50
000
ASUS45 KBOU 012010
RWRCO

WEATHER ROUNDUP FOR COLORADO
NATIONAL WEATHER SERVICE DENVER/BOULDER CO
200 PM MDT WED JUL 01 2015

NOTE: "FAIR" INDICATES FEW OR NO CLOUDS BELOW 12000 FEET WITH NO
SIGNIFICANT WEATHER AND/OR OBSTRUCTIONS TO VISIBILITY.

COZ001>005-013-030-031-012100-
...NORTHWEST COLORADO...

CITY           SKY/WX    TMP DP  RH WIND       PRES   REMARKS
CRAIG          CLOUDY    77  53  43 S8        30.23F
HAYDEN         CLOUDY    75  46  35 SW9       30.26F
MEEKER         PTSUNNY   84  52  33 VRB6      30.23F
MOUNT WERNER   NOT AVBL
STEAMBOAT SPGS CLOUDY    73  53  50 SW6       30.29S
WALDEN         CLOUDY    59  46  63 W18G28    30.39R
$$

COZ006>008-011-012100-
...WEST CENTRAL VALLEYS...

CITY           SKY/WX    TMP DP  RH WIND       PRES   REMARKS
GRAND JUNCTION PTSUNNY   91  47  21 S8        30.06F
MONTROSE       MOSUNNY   91  46  21 NW9       30.15F
EAGLE          PTSUNNY   84  43  23 NW9G18    30.23F THUNDER
RIFLE          PTSUNNY   86  47  25 NW5       30.14F
DELTA          MOSUNNY   94  43  17 CALM      30.10F
NUCLA          MOSUNNY   91  41  17 NW6       30.19F
$$

COZ017>023-064>068-012100-
...SOUTHWEST COLORADO...

CITY           SKY/WX    TMP DP  RH WIND       PRES   REMARKS
DURANGO        MOSUNNY   88  45  22 VRB5      30.19F
CORTEZ         SUNNY     94  45  18 S8        30.13F
PAGOSA SPRINGS MOSUNNY   83  39  21 SW3       30.28F
TELLURIDE      PTSUNNY   78  42  27 W14       30.43F
WOLF CREEK PAS NOT AVBL
$$

COZ009-010-012-014-032>034-037-058>063-012100-
...CENTRAL COLORADO...

CITY           SKY/WX    TMP DP  RH WIND       PRES   REMARKS
ASPEN          PTSUNNY   84  42  22 N12       30.30S
BUENA VISTA    PTSUNNY   74  44  34 S8        30.31R THUNDER
COPPER MTN     PTSUNNY   68  32  26 W20G32    30.67F
BERTHOUD PASS  CLOUDY    48  37  66 N10G26    30.73F
COTTONWOOD PAS NOT AVBL
GUNNISON       PTSUNNY   82  41  23 SW7       30.31F
KREMMLING      CLOUDY    81  41  24 S9        30.30F
LEADVILLE      PTSUNNY   74  35  24 NW9       30.46F
MONARCH PASS   PTSUNNY   59  39  47 NE8       30.78R THUNDER
SALIDA         CLOUDY    82  43  25 NW9       30.35R
SUNLIGHT       PTSUNNY   66  48  52 W5        30.61F THUNDER
WILKERSON PASS TSTM      57  50  77 NE7       30.63F
$$

COZ069>075-012100-
...SAN LUIS VALLEY/SANGRE DE CRISTO MOUNTAINS...

CITY           SKY/WX    TMP DP  RH WIND       PRES   REMARKS
ALAMOSA        MOSUNNY   83  42  23 VRB6      30.27F
LA VETA PASS   MOSUNNY   73  46  38 MISG      30.53F THUNDER
SAGUACHE       MOSUNNY   82  43  24 S8        30.30F
$$

COZ035-036-038>040-012100-
...NORTHERN COLORADO FRONT RANGE...

CITY           SKY/WX    TMP DP  RH WIND       PRES   REMARKS
DENVER INTL AP MOSUNNY   88  50  27 E6        30.13F
DMNS CITY PARK   N/A     85  50  29 N6        30.13S
AURORA         PTSUNNY   87  54  31 E8        30.17F
FRONT RANGE AP PTSUNNY   90  54  29 NE6       30.15F
ERIE MUNI ARPT MOSUNNY   86  48  26 MISG      30.13S
BOULDER MUN AP LGT RAIN  82  52  34 CALM      30.14S
CENTENNIAL     PTSUNNY   86  51  29 VRB3      30.18F
BROOMFIELD     PTSUNNY   86  48  26 E5        30.17F
FORT COLLINS   MOSUNNY   84  57  39 S6        30.09F
LONGMONT       MOSUNNY   90  52  26 NW7       30.13F
$$

COZ041-046-047-076>085-087-088-012100-
...PIKES PEAK/PALMER DIVIDE AND SOUTHERN FOOTHILLS...

CITY           SKY/WX    TMP DP  RH WIND       PRES   REMARKS
COLO. SPRINGS  PTSUNNY   85  52  32 E15       30.20F
A. F. ACADEMY  MOSUNNY   82  51  34 E13       30.21F
ELLICOTT       MOSUNNY  N/A N/A N/A E9G16     30.20F
FALCON         MOSUNNY   83  46  27 E9        30.28F
FORT CARSON    MOSUNNY   85  55  36 E8        30.17F
LIMON          MOSUNNY   86  53  32 SE5       30.14F
MONUMENT HILL  MOSUNNY   77  48  36 E3        30.28F
TRINIDAD       PTSUNNY   86  48  26 VRB3      30.16F
$$

COZ042>045-048>051-090-091-012100-
...NORTHEAST COLORADO...

CITY           SKY/WX    TMP DP  RH WIND       PRES   REMARKS
GREELEY ARPT   SUNNY     91  52  25 NE7       30.09F
AKRON          MOSUNNY   90  48  23 NE8       30.09F
BURLINGTON     SUNNY     93  47  20 E9G20     30.05S
WRAY           MOSUNNY   98  47  17 NE6       30.01S
STERLING       SUNNY     93  52  24 NE8         N/A
HOLYOKE        SUNNY     97  50  20 N9        30.01S
FORT MORGAN    MOSUNNY   92  48  22 N6        30.08F
$$

COZ086-089-092>099-012100-
...SOUTHEAST COLORADO...

CITY           SKY/WX    TMP DP  RH WIND       PRES   REMARKS
PUEBLO         SUNNY     95  51  22 SE14      30.06F
LA JUNTA       SUNNY     96  53  23 NE7       30.03F
LAMAR          MOSUNNY   97  53  22 N10       29.98F
SPRINGFIELD      N/A     93  52  24 N10G23    30.03S
$$


USA.gov is the U.S. government's official web portal to all federal, state and local government web resources and services.